Location: Cambroso
(45.2833°N, 12.0850°E)
Time: 15:08:09
(UTC+00:00)

Cosmos 1680 Rocket - Pass Details

Date: 21 January 2021
Orbit: 760 x 780 km, 74.1° (Epoch: 27 February)

Event Time Altitude Azimuth Distance (km) Brightness Sun altitude
Rises 17:41:11 0° 342° (NNW) 3,249 6.8 -17.0°
Reaches altitude 10° 17:43:38 10° 347° (NNW) 2,316 6.0 -17.4°
Maximum altitude 17:48:47 55° 65° (ENE) 918 3.5 -18.3°
Enters shadow 17:53:37 11° 142° (SE) 2,190 5.6 -19.1°
